This is the latest recevied weather packets stored in our database for station/object 4S6DRJ-13. If no packets are shown the sender has not sent any weather packets the latest 10 day(s).
| Time | Temp. | Humidity | Pressure | Rain* | Wind** | Luminosity | Snow |
|---|---|---|---|---|---|---|---|
| 1787582935 | 28.33° C | 84% | 1010.8 hPa | 0 mm | 0.89 m/s, 132° | 0 W/m² | - |
| 1787582874 | 28.33° C | 84% | 1010.6 hPa | 0 mm | 2.24 m/s, 268° | 0 W/m² | - |
| 1787582813 | 28.33° C | 84% | 1010.8 hPa | 0 mm | 0.89 m/s, 295° | 0 W/m² | - |
| 1787582752 | 28.33° C | 84% | 1010.7 hPa | 0 mm | 0.45 m/s, 236° | 0 W/m² | - |
| 1787582691 | 28.33° C | 84% | 1010.6 hPa | 0 mm | 0.45 m/s, 280° | 0 W/m² | - |
| 1787582630 | 28.33° C | 84% | 1010.5 hPa | 0 mm | 0.89 m/s, 182° | 0 W/m² | - |
| 1787582569 | 28.33° C | 84% | 1010.4 hPa | 0 mm | 0.89 m/s, 266° | 0 W/m² | - |
| 1787582509 | 28.33° C | 84% | 1010.5 hPa | 0 mm | 1.79 m/s, 238° | 0 W/m² | - |
| 1787582447 | 28.33° C | 84% | 1010.5 hPa | 0 mm | 2.24 m/s, 220° | 0 W/m² | - |
| 1787582386 | 28.33° C | 84% | 1010.6 hPa | 0 mm | 1.34 m/s, 262° | 0 W/m² | - |
| 1787582325 | 28.33° C | 84% | 1010.4 hPa | 0 mm | 0 m/s | 0 W/m² | - |
| 1787582264 | 28.33° C | 84% | 1010.4 hPa | 0 mm | 0 m/s | 0 W/m² | - |
| 1787582203 | 28.33° C | 84% | 1010.3 hPa | 0 mm | 0.89 m/s, 241° | 0 W/m² | - |
| 1787582142 | 28.33° C | 84% | 1010.2 hPa | 0 mm | 1.34 m/s, 243° | 0 W/m² | - |
| 1787582081 | 28.33° C | 84% | 1010.3 hPa | 0 mm | 0.89 m/s, 262° | 0 W/m² | - |
| 1787582020 | 28.33° C | 84% | 1010.2 hPa | 0 mm | 1.34 m/s, 235° | 0 W/m² | - |
| 1787581959 | 28.33° C | 84% | 1010.4 hPa | 0 mm | 1.79 m/s, 197° | 0 W/m² | - |
| 1787581898 | 28.33° C | 84% | 1010.2 hPa | 0 mm | 0.45 m/s, 222° | 0 W/m² | - |
| 1787581837 | 28.33° C | 84% | 1010.1 hPa | 0 mm | 0.89 m/s, 201° | 0 W/m² | - |
| 1787581776 | 28.33° C | 84% | 1010.4 hPa | 0 mm | 2.68 m/s, 182° | 0 W/m² | - |
| 1787581715 | 28.33° C | 84% | 1010.2 hPa | 0 mm | 0.89 m/s, 200° | 0 W/m² | - |
| 1787581654 | 28.33° C | 84% | 1010.1 hPa | 0 mm | 0.89 m/s, 263° | 0 W/m² | - |
| 1787581593 | 28.33° C | 84% | 1010.2 hPa | 0 mm | 0.89 m/s, 195° | 0 W/m² | - |
| 1787581532 | 28.33° C | 84% | 1010.5 hPa | 0 mm | 0.89 m/s, 288° | 0 W/m² | - |
| 1787581472 | 28.33° C | 84% | 1010.3 hPa | 0 mm | 1.34 m/s, 256° | 0 W/m² | - |
* Rain latest hour (hover to see other rain measurements)
** Current wind speed in m/s (hover to see current wind gust speed)